This is the latest recevied weather packets stored in our database for station/object DG7YEO-13. If no packets are shown the sender has not sent any weather packets the latest 10 day(s).
| Time | Temp. | Humidity | Pressure | Rain* | Wind** | Luminosity | Snow |
|---|---|---|---|---|---|---|---|
| 1787639525 | 15.56° C | 77% | 1015 hPa | 0 mm | - | - | - |
| 1787638625 | 14.44° C | 82% | 1015 hPa | 0 mm | - | - | - |
| 1787637725 | 13.33° C | 86% | 1015 hPa | 0 mm | - | - | - |
| 1787636824 | 12.22° C | 87% | 1014.9 hPa | 0 mm | - | - | - |
| 1787635925 | 11.67° C | 88% | 1014.9 hPa | 0 mm | - | - | - |
| 1787635025 | 11.67° C | 87% | 1014.9 hPa | 0 mm | - | - | - |
| 1787634126 | 11.67° C | 86% | 1014.9 hPa | 0 mm | - | - | - |
| 1787633225 | 11.67° C | 86% | 1015 hPa | 0 mm | - | - | - |
| 1787632325 | 11.67° C | 86% | 1015 hPa | 0 mm | - | - | - |
| 1787631425 | 11.67° C | 85% | 1014.9 hPa | 0 mm | - | - | - |
| 1787630525 | 12.22° C | 85% | 1014.8 hPa | 0 mm | - | - | - |
| 1787629624 | 12.22° C | 84% | 1014.9 hPa | 0 mm | - | - | - |
| 1787628725 | 12.22° C | 84% | 1015.1 hPa | 0 mm | - | - | - |
| 1787627825 | 12.22° C | 84% | 1015 hPa | 0 mm | - | - | - |
| 1787626925 | 12.78° C | 83% | 1015.2 hPa | 0 mm | - | - | - |
| 1787626024 | 12.78° C | 83% | 1015.3 hPa | 0 mm | - | - | - |
| 1787625125 | 12.78° C | 82% | 1015.4 hPa | 0 mm | - | - | - |
| 1787624225 | 13.33° C | 81% | 1015.6 hPa | 0 mm | - | - | - |
| 1787623325 | 13.33° C | 81% | 1015.7 hPa | 0 mm | - | - | - |
| 1787622425 | 13.33° C | 80% | 1015.8 hPa | 0 mm | - | - | - |
| 1787621525 | 13.89° C | 79% | 1015.7 hPa | 0 mm | - | - | - |
| 1787620624 | 13.89° C | 79% | 1015.7 hPa | 0 mm | - | - | - |
| 1787619725 | 13.89° C | 78% | 1015.7 hPa | 0 mm | - | - | - |
| 1787618824 | 14.44° C | 78% | 1015.7 hPa | 0 mm | - | - | - |
| 1787617925 | 14.44° C | 77% | 1015.9 hPa | 0 mm | - | - | - |
* Rain latest hour (hover to see other rain measurements)
** Current wind speed in m/s (hover to see current wind gust speed)